Hlavní strana
METAR-TAF:

METAR-TAF

Letiště :

Litchfield Municipal Airport

Litchfield, Illinois, Spojené státy americké

zeměpisná šířka: 39-09-44N, zeměpisná délka: 089-40-28W, výška: 210 m

Aktuální stav počasí

Zpráva byla vytvořena před 20 minutami, v 08:35 UTC
Jižní vítr 8 kt
Teplota 6°C
Vlhkost vzduchu 93%
Tlak 1013 hPa
Viditelnost: 8.0 km
Zataženo ve výšce 600 ft
kouřmo

METAR: K3LF 240835Z AUTO 17008KT 5SM BR OVC006 06/05 A2992 RMK AO2 T00550047

Čas: 02:55 (08:55 UTC)


TAF: chybějící

Stav a předpovědi počasí z více než 4 000 letišť (zprávy METAR a TAF).

Červené a žluté tečky na mapě představují dostupné meteorologické stanice.

Když kurzor umístíte na tečku, zobrazí se název stanice.

Pak kliknutím zobrazíte stav a předpověď počasí.

Chcete-li změnit mapu, kliknutím na zelené tlačítko se znaménkem +mapu přiblížíte, kliknutím na zelené tlačítko se znaménkem – mapu oddálíte a kliknutím na zelené šipky přejdete na sousední mapy.


METAR-TAF: